period_start,C,m1,H,J0,J1,J2,J3,J4,J5,JA,JB,JC,JD,JJ,JK,JN,#
2014-01-30 00:00:54,0.26,6.31,0.00,21.44,26.84,29.82,5.96,32.46,999.02,2042.06,1716.17,2018.98,2175.43,349.83,319.89,22.02,0000 0000 0000 0000 000000
2014-01-30 00:01:55,0.18,6.31,0.00,21.46,26.85,29.82,6.03,32.71,999.01,2042.03,1715.87,2018.95,2175.17,349.68,319.73,22.03,0000 0000 0000 0000 000000
2014-01-30 00:02:55,0.22,6.31,0.00,21.47,26.85,29.83,5.95,32.58,998.97,2042.01,1715.36,2018.96,2175.06,348.84,318.94,22.04,0000 0000 0000 0000 000000
2014-01-30 00:03:55,0.17,6.31,0.00,21.47,26.87,29.86,6.05,32.75,998.84,2042.00,1715.12,2018.95,2175.02,349.41,319.42,22.04,0000 0000 0000 0000 000000
2014-01-30 00:04:56,0.09,6.31,0.00,21.48,26.87,29.85,5.95,32.63,998.73,2042.00,1714.76,2018.93,2175.00,349.69,319.63,22.05,0000 0000 0000 0000 000000
2014-01-30 00:05:56,0.17,6.31,0.00,21.48,26.87,29.86,6.01,32.58,998.63,2042.00,1714.30,2018.91,2175.00,351.15,320.93,22.05,0000 0000 0000 0000 000000
2014-01-30 00:06:56,0.17,6.31,0.00,21.49,26.89,29.88,6.13,32.67,998.60,2042.00,1714.09,2018.93,2175.00,350.25,320.08,22.06,0000 0000 0000 0000 000000
2014-01-30 00:07:56,0.09,6.32,0.00,21.50,26.90,29.88,5.92,32.29,998.61,2042.00,1713.69,2018.94,2174.97,350.56,320.51,22.07,0000 0000 0000 0000 000000
2014-01-30 00:08:57,0.17,6.32,0.00,21.51,26.90,29.88,5.99,32.58,998.61,2042.00,1713.27,2018.94,2174.92,350.16,319.98,22.07,0000 0000 0000 0000 000000
2014-01-30 00:09:57,0.17,6.32,0.00,21.52,26.91,29.88,6.06,32.71,998.57,2042.00,1713.07,2018.94,2174.78,349.90,319.99,22.08,0000 0000 0000 0000 000000
2014-01-30 00:10:57,0.10,6.32,0.00,21.52,26.92,29.84,6.02,32.46,998.56,2042.00,1712.71,2018.96,2174.54,350.13,319.93,22.08,0000 0000 0000 0000 000000
2014-01-30 00:11:57,0.24,6.32,0.00,21.54,26.92,29.88,5.95,32.50,998.55,2042.00,1712.26,2018.94,2174.26,349.86,319.98,22.09,0000 0000 0000 0000 000000
2014-01-30 00:12:58,0.26,6.32,0.00,21.56,26.93,29.89,5.97,32.71,998.55,2042.00,1712.07,2018.91,2174.11,349.15,319.28,22.09,0000 0000 0000 0000 000000
2014-01-30 00:13:58,0.10,6.32,0.00,21.57,26.95,29.93,5.95,32.71,998.55,2042.00,1711.65,2018.93,2174.04,349.32,318.89,22.10,0000 0000 0000 0000 000000
2014-01-30 00:14:58,0.22,6.32,0.00,21.58,26.95,29.93,5.95,32.42,998.56,2042.00,1711.23,2018.94,2174.02,350.90,320.53,22.11,0000 0000 0000 0000 000000
2014-01-30 00:15:58,0.15,6.32,0.00,21.59,26.95,29.91,6.02,32.63,998.56,2041.99,1711.04,2018.94,2174.00,350.26,320.06,22.11,0000 0000 0000 0000 000000
2014-01-30 00:16:59,0.03,6.32,0.00,21.59,26.97,29.93,6.07,32.88,998.55,2041.99,1710.55,2018.96,2173.99,350.37,320.07,22.12,0000 0000 0000 0000 000000
2014-01-30 00:17:59,0.25,6.33,0.00,21.60,26.97,29.94,6.09,32.54,998.55,2041.98,1710.20,2018.95,2173.97,350.11,319.84,22.12,0000 0000 0000 0000 000000
2014-01-30 00:18:59,0.11,6.33,0.00,21.61,26.97,29.95,5.98,32.54,998.55,2041.98,1709.97,2018.88,2173.88,348.94,318.67,22.13,0000 0000 0000 0000 000000
2014-01-30 00:19:59,0.16,6.33,0.00,21.60,26.99,29.92,5.98,32.54,998.55,2041.99,1709.46,2018.89,2173.72,350.61,320.06,22.14,0000 0000 0000 0000 000000
2014-01-30 00:20:59,0.27,6.33,0.00,21.61,27.00,29.94,5.99,32.54,998.55,2041.98,1709.16,2018.93,2173.39,350.05,319.99,22.14,0000 0000 0000 0000 000000
2014-01-30 00:22:00,0.14,6.33,0.00,21.62,27.00,29.94,5.98,32.63,998.55,2041.97,1708.80,2018.92,2173.16,349.78,319.52,22.15,0000 0000 0000 0000 000000
2014-01-30 00:23:00,0.24,6.33,0.00,21.64,27.01,29.98,5.93,32.33,998.55,2041.93,1708.31,2018.89,2173.07,350.04,319.72,22.15,0000 0000 0000 0000 000000
2014-01-30 00:24:00,0.17,6.33,0.00,21.64,27.02,29.98,6.01,32.71,998.55,2041.88,1708.08,2018.90,2173.03,350.23,319.88,22.16,0000 0000 0000 0000 000000
2014-01-30 00:25:00,0.01,6.33,0.00,21.65,27.02,29.98,5.90,32.33,998.55,2041.83,1707.64,2018.91,2173.01,350.31,319.94,22.16,0000 0000 0000 0000 000000
2014-01-30 00:26:01,0.15,6.33,0.00,21.67,27.03,29.96,5.93,32.46,998.54,2041.72,1707.23,2018.89,2173.00,350.71,320.30,22.17,0000 0000 0000 0000 000000
2014-01-30 00:27:01,0.03,6.33,0.00,21.66,27.05,29.96,5.95,32.46,998.53,2041.51,1707.00,2018.87,2172.98,348.98,318.72,22.18,0000 0000 0000 0000 000000
2014-01-30 00:28:01,-0.16,6.33,0.00,21.66,27.05,29.97,5.84,32.54,998.54,2041.30,1706.50,2018.85,2172.96,349.69,319.36,22.18,0000 0000 0000 0000 000000
2014-01-30 00:29:01,0.04,6.33,0.00,21.67,27.05,30.01,5.88,32.58,998.51,2041.19,1706.18,2018.83,2172.72,349.71,319.36,22.19,0000 0000 0000 0000 000000
2014-01-30 00:30:01,0.11,6.33,0.00,21.67,27.06,30.02,6.02,32.79,998.45,2041.13,1705.89,2018.81,2172.36,350.51,319.84,22.19,0000 0000 0000 0000 000000
2014-01-30 00:31:01,0.13,6.33,0.00,21.67,27.07,30.01,6.04,32.58,998.38,2041.11,1705.37,2018.69,2172.15,350.61,320.15,22.20,0000 0000 0000 0000 000000
2014-01-30 00:32:01,0.28,6.34,0.00,21.67,27.07,30.03,5.92,32.63,998.40,2041.07,1704.74,2018.27,2171.88,350.23,319.56,22.21,0000 0000 0000 0000 000000
2014-01-30 00:33:02,0.51,6.34,0.00,21.67,27.08,30.05,5.90,32.63,998.31,2041.04,1703.44,2017.44,2170.89,349.57,319.17,22.21,0000 0000 0000 0000 000000
2014-01-30 00:34:02,1.22,6.35,0.00,21.68,27.10,30.06,6.01,32.67,998.20,2041.02,1701.51,2016.01,2169.38,350.98,320.42,22.22,0000 0000 0000 0000 000000
2014-01-30 00:35:02,1.93,6.36,0.00,21.69,27.10,30.05,5.95,32.38,998.13,2041.01,1699.54,2014.51,2167.81,349.50,319.04,22.22,0000 0000 0000 0000 000000
2014-01-30 00:36:03,1.93,6.37,0.00,21.69,27.10,30.03,6.06,32.63,998.11,2041.01,1697.89,2013.39,2166.55,349.94,319.13,22.23,0000 0000 0000 0000 000000
2014-01-30 00:37:03,1.50,6.38,0.00,21.69,27.12,30.05,5.92,32.50,998.10,2041.00,1696.73,2012.55,2165.62,349.64,318.96,22.23,0000 0000 0000 0000 000000
2014-01-30 00:38:03,1.11,6.38,0.00,21.70,27.12,30.06,5.88,32.58,998.11,2041.00,1696.03,2012.20,2165.23,348.57,318.16,22.24,0000 0000 0000 0000 000000
2014-01-30 00:39:03,0.52,6.39,0.00,21.71,27.12,30.07,6.00,32.54,998.10,2041.00,1695.39,2012.07,2165.07,349.97,319.18,22.25,0000 0000 0000 0000 000000
2014-01-30 00:40:04,0.36,6.39,0.00,21.73,27.13,30.05,5.94,32.46,998.11,2041.00,1694.95,2012.02,2164.93,350.01,319.83,22.25,0000 0000 0000 0000 000000
2014-01-30 00:41:04,0.22,6.39,0.00,21.74,27.15,30.04,5.90,32.67,998.09,2041.00,1694.39,2012.00,2164.57,350.56,320.22,22.26,0000 0000 0000 0000 000000
2014-01-30 00:42:04,0.36,6.39,0.00,21.74,27.15,30.07,5.94,32.50,998.07,2041.00,1693.96,2011.99,2164.22,349.27,318.75,22.26,0000 0000 0000 0000 000000
2014-01-30 00:43:04,0.25,6.39,0.00,21.74,27.15,30.08,5.98,32.75,998.06,2041.00,1693.39,2011.93,2164.08,350.26,319.64,22.27,0000 0000 0000 0000 000000
2014-01-30 00:44:04,0.31,6.40,0.00,21.75,27.16,30.08,5.92,32.54,998.08,2041.00,1692.80,2011.56,2163.99,349.65,319.09,22.28,0000 0000 0000 0000 000000
2014-01-30 00:45:05,0.47,6.40,0.00,21.77,27.17,30.12,5.85,32.63,998.07,2041.00,1692.24,2011.21,2163.60,349.19,318.65,22.28,0000 0000 0000 0000 000000
2014-01-30 00:46:05,0.47,6.40,0.00,21.78,27.17,30.14,6.03,32.79,998.06,2040.99,1691.56,2011.07,2163.23,350.40,319.74,22.29,0000 0000 0000 0000 000000
2014-01-30 00:47:05,0.47,6.40,0.00,21.77,27.17,30.13,5.99,32.63,998.07,2040.99,1690.94,2011.02,2163.07,350.59,319.91,22.29,0000 0000 0000 0000 000000
2014-01-30 00:48:05,0.31,6.41,0.00,21.78,27.19,30.09,5.92,32.67,998.06,2040.98,1690.32,2010.94,2162.68,350.58,319.90,22.30,0000 0000 0000 0000 000000
2014-01-30 00:49:06,0.36,6.41,0.00,21.79,27.20,30.09,6.02,32.71,998.06,2040.97,1689.64,2010.55,2162.26,350.12,319.46,22.30,0000 0000 0000 0000 000000
2014-01-30 00:50:06,0.60,6.41,0.00,21.80,27.20,30.14,5.99,32.42,998.06,2040.95,1689.07,2010.21,2162.07,350.69,319.98,22.31,0000 0000 0000 0000 000000
2014-01-30 00:51:06,0.39,6.41,0.00,21.82,27.20,30.12,5.96,32.54,998.06,2040.97,1688.40,2010.07,2161.68,349.63,318.99,22.32,0000 0000 0000 0000 000000
2014-01-30 00:52:06,0.49,6.42,0.00,21.82,27.22,30.15,6.13,32.63,998.06,2040.98,1687.67,2009.88,2161.24,351.64,320.88,22.32,0000 0000 0000 0000 000000
2014-01-30 00:53:07,0.51,6.42,0.00,21.81,27.22,30.16,6.04,32.42,998.06,2040.93,1686.94,2009.42,2160.98,350.91,320.16,22.33,0000 0000 0000 0000 000000
2014-01-30 00:54:07,0.54,6.42,0.00,21.82,27.22,30.16,5.91,32.46,998.06,2040.93,1686.33,2009.16,2160.53,350.10,319.67,22.33,0000 0000 0000 0000 000000
2014-01-30 00:55:07,0.51,6.43,0.00,21.82,27.23,30.14,5.88,32.50,998.06,2040.93,1685.70,2009.06,2160.20,349.74,319.42,22.34,0000 0000 0000 0000 000000
2014-01-30 00:56:07,0.35,6.43,0.00,21.82,27.24,30.12,5.98,32.54,998.04,2040.94,1685.24,2009.02,2160.07,349.75,319.09,22.35,0000 0000 0000 0000 000000
2014-01-30 00:57:08,0.25,6.43,0.00,21.84,27.25,30.15,5.91,32.58,998.01,2040.90,1684.68,2009.00,2160.02,349.24,318.91,22.35,0000 0000 0000 0000 000000
2014-01-30 00:58:08,0.19,6.43,0.00,21.84,27.25,30.18,5.89,32.79,998.03,2040.88,1684.25,2009.00,2159.96,349.73,319.31,22.36,0000 0000 0000 0000 000000
2014-01-30 00:59:08,0.14,6.43,0.00,21.84,27.25,30.16,5.95,32.50,998.03,2040.86,1684.01,2009.00,2159.91,349.66,318.79,22.36,0000 0000 0000 0000 000000
2014-01-30 01:00:08,0.12,6.43,0.50,21.87,27.27,30.18,5.98,32.67,998.04,2040.75,1683.48,2009.00,2159.70,349.95,319.20,22.37,0000 0000 0000 0000 000000
2014-01-30 01:01:09,0.14,6.43,1.00,21.87,27.27,30.21,5.79,32.79,997.93,2040.53,1683.18,2009.00,2159.37,349.27,318.56,22.38,0000 0000 0000 0000 000000
2014-01-30 01:02:09,-0.03,6.43,1.00,21.88,27.27,30.20,5.98,32.71,997.84,2040.42,1682.88,2008.99,2159.16,348.95,318.24,22.38,0000 0000 0000 0000 000000
2014-01-30 01:03:09,0.06,6.43,1.00,21.89,27.28,30.21,6.03,32.75,997.72,2040.25,1682.36,2008.99,2159.06,350.59,319.69,22.39,0000 0000 0000 0000 000000
2014-01-30 01:04:09,0.09,6.43,1.00,21.89,27.29,30.21,5.93,32.75,997.70,2040.16,1682.11,2008.98,2159.02,349.87,318.60,22.39,0000 0000 0000 0000 000000
2014-01-30 01:05:10,0.01,6.43,1.00,21.89,27.30,30.18,6.03,32.54,997.63,2040.14,1681.70,2008.99,2159.00,349.83,318.95,22.40,0000 0000 0000 0000 000000
2014-01-30 01:06:10,0.17,6.44,1.00,21.90,27.30,30.20,6.09,32.96,997.67,2040.06,1681.25,2008.97,2158.99,350.18,319.28,22.40,0000 0000 0000 0000 000000
2014-01-30 01:07:10,0.10,6.44,1.00,21.90,27.30,30.23,5.98,32.75,997.65,2040.03,1681.06,2008.98,2158.97,349.89,319.01,22.41,0000 0000 0000 0000 000000
2014-01-30 01:08:10,0.06,6.44,1.00,21.91,27.31,30.26,5.98,32.83,997.62,2040.04,1680.53,2008.98,2158.85,350.28,319.34,22.42,0000 0000 0000 0000 000000
2014-01-30 01:09:11,0.28,6.44,1.00,21.92,27.32,30.25,6.00,32.71,997.60,2040.05,1680.19,2008.98,2158.55,349.58,318.68,22.42,0000 0000 0000 0000 000000
2014-01-30 01:10:11,0.23,6.44,1.00,21.93,27.32,30.23,5.92,32.63,997.61,2040.02,1679.88,2008.99,2158.29,350.26,319.03,22.43,0000 0000 0000 0000 000000
2014-01-30 01:11:11,0.14,6.44,1.00,21.93,27.32,30.21,5.97,32.75,997.63,2040.00,1679.37,2008.98,2158.11,350.13,319.19,22.43,0000 0000 0000 0000 000000
2014-01-30 01:12:12,0.26,6.44,1.00,21.94,27.33,30.24,5.93,32.71,997.62,2040.01,1678.96,2008.96,2158.04,349.89,318.96,22.44,0000 0000 0000 0000 000000
2014-01-30 01:13:12,0.19,6.44,1.00,21.94,27.34,30.27,5.95,32.58,997.62,2040.01,1678.40,2008.86,2158.00,350.16,318.78,22.45,0000 0000 0000 0000 000000
2014-01-30 01:14:12,0.32,6.44,1.00,21.94,27.35,30.30,5.95,32.75,997.64,2040.00,1677.96,2008.56,2157.93,349.88,318.96,22.45,0000 0000 0000 0000 000000
2014-01-30 01:15:12,0.34,6.45,1.00,21.94,27.35,30.28,5.98,32.58,997.63,2040.00,1677.38,2008.25,2157.54,350.59,319.32,22.46,0000 0000 0000 0000 000000
2014-01-30 01:16:13,0.51,6.45,1.00,21.95,27.35,30.30,5.95,32.71,997.66,2040.00,1676.90,2008.10,2157.22,349.45,318.56,22.46,0000 0000 0000 0000 000000
2014-01-30 01:17:13,0.34,6.45,1.00,21.95,27.36,30.30,5.92,32.67,997.66,2040.00,1676.31,2008.04,2157.07,349.73,318.80,22.47,0000 0000 0000 0000 000000
2014-01-30 01:18:13,0.33,6.45,1.00,21.96,27.37,30.28,5.91,32.75,997.59,2040.00,1675.67,2008.01,2157.00,350.19,319.05,22.47,0000 0000 0000 0000 000000
2014-01-30 01:19:13,0.28,6.46,1.00,21.97,27.37,30.28,5.99,32.75,997.61,2040.00,1675.24,2008.00,2156.96,349.03,318.38,22.48,0000 0000 0000 0000 000000
2014-01-30 01:20:14,0.21,6.46,1.00,21.97,27.37,30.31,6.05,32.71,997.59,2040.00,1674.90,2008.00,2156.60,349.91,318.93,22.49,0000 0000 0000 0000 000000
2014-01-30 01:21:14,0.23,6.46,1.00,21.99,27.38,30.32,5.98,32.71,997.57,2040.00,1674.37,2008.00,2156.24,350.40,319.52,22.49,0000 0000 0000 0000 000000
2014-01-30 01:22:14,0.32,6.46,1.00,21.99,27.40,30.33,5.96,32.79,997.58,2040.00,1674.11,2008.00,2156.10,349.37,318.75,22.50,0000 0000 0000 0000 000000
2014-01-30 01:23:14,0.16,6.46,1.00,22.00,27.40,30.33,5.88,32.88,997.61,2040.00,1673.70,2007.99,2156.04,350.88,319.69,22.50,0000 0000 0000 0000 000000
2014-01-30 01:24:15,0.18,6.46,1.00,22.02,27.40,30.34,6.03,32.50,997.59,2040.00,1673.28,2007.99,2156.01,351.21,320.06,22.51,0000 0000 0000 0000 000000
2014-01-30 01:25:15,0.18,6.46,1.00,22.02,27.40,30.33,5.94,32.75,997.58,2040.00,1673.08,2007.99,2156.00,350.36,319.28,22.52,0000 0000 0000 0000 000000
2014-01-30 01:26:15,0.10,6.46,1.00,22.02,27.40,30.36,5.92,32.71,997.57,2040.00,1672.64,2007.99,2156.00,350.15,318.89,22.52,0000 0000 0000 0000 000000
2014-01-30 01:27:15,0.16,6.46,1.00,22.02,27.42,30.34,5.92,32.75,997.58,2040.00,1672.24,2007.98,2155.99,349.20,318.23,22.53,0000 0000 0000 0000 000000
2014-01-30 01:28:16,0.18,6.47,1.00,22.02,27.42,30.35,6.09,32.75,997.57,2040.00,1672.08,2007.98,2155.98,350.18,319.11,22.53,0000 0000 0000 0000 000000
2014-01-30 01:29:16,0.08,6.47,1.00,22.03,27.42,30.32,6.08,32.71,997.57,2039.99,1671.73,2007.99,2155.94,350.35,319.27,22.54,0000 0000 0000 0000 000000
2014-01-30 01:30:16,0.15,6.47,0.33,22.04,27.42,30.34,5.99,32.75,997.57,2039.99,1671.29,2007.99,2155.71,349.82,319.09,22.55,0000 0000 0000 0000 000000
2014-01-30 01:31:16,0.22,6.47,0.00,22.04,27.43,30.35,5.90,32.83,997.57,2039.98,1671.01,2007.99,2155.35,349.35,318.34,22.55,0000 0000 0000 0000 000000
2014-01-30 01:32:17,0.21,6.47,0.00,22.05,27.45,30.36,5.97,32.67,997.57,2039.98,1670.47,2007.98,2155.15,349.99,318.92,22.56,0000 0000 0000 0000 000000
2014-01-30 01:33:17,0.29,6.47,0.00,22.07,27.45,30.36,5.90,32.92,997.57,2039.99,1670.14,2007.98,2155.06,348.77,318.11,22.56,0000 0000 0000 0000 000000
2014-01-30 01:34:17,0.19,6.47,0.00,22.07,27.45,30.36,5.99,32.88,997.57,2039.98,1669.66,2007.98,2155.02,350.57,319.42,22.57,0000 0000 0000 0000 000000
2014-01-30 01:35:17,0.18,6.47,0.00,22.07,27.45,30.37,5.90,32.63,997.57,2039.97,1669.24,2007.98,2155.00,349.71,318.82,22.57,0000 0000 0000 0000 000000
2014-01-30 01:36:18,0.17,6.47,0.00,22.07,27.46,30.36,6.02,32.75,997.57,2039.98,1668.92,2007.96,2154.98,350.23,319.08,22.58,0000 0000 0000 0000 000000
2014-01-30 01:37:18,0.16,6.48,0.00,22.08,27.47,30.36,5.94,32.83,997.57,2039.98,1668.41,2007.96,2154.97,349.33,318.45,22.59,0000 0000 0000 0000 000000
2014-01-30 01:38:18,0.20,6.48,0.00,22.09,27.47,30.39,5.96,32.54,997.57,2039.98,1668.15,2007.97,2154.92,349.93,318.44,22.59,0000 0000 0000 0000 000000
2014-01-30 01:39:19,0.14,6.48,0.00,22.09,27.47,30.40,5.90,32.71,997.57,2039.96,1667.83,2007.98,2154.61,349.98,319.07,22.60,0000 0000 0000 0000 000000
2014-01-30 01:40:19,0.20,6.48,0.00,22.10,27.47,30.41,5.88,32.75,997.56,2039.94,1667.34,2007.98,2154.27,349.96,318.83,22.60,0000 0000 0000 0000 000000
2014-01-30 01:41:19,0.25,6.48,0.00,22.09,27.48,30.41,5.88,32.75,997.56,2039.90,1667.12,2007.98,2154.15,349.60,318.38,22.61,0000 0000 0000 0000 000000
2014-01-30 01:42:20,0.05,6.48,0.00,22.10,27.49,30.40,5.92,32.83,997.55,2039.85,1666.83,2007.98,2154.06,350.69,319.44,22.62,0000 0000 0000 0000 000000
2014-01-30 01:43:20,0.10,6.48,0.00,22.11,27.50,30.40,5.88,32.58,997.55,2039.86,1666.35,2007.99,2154.02,349.09,318.02,22.62,0000 0000 0000 0000 000000
2014-01-30 01:44:20,0.21,6.48,0.00,22.12,27.50,30.41,5.97,32.79,997.55,2039.77,1666.12,2007.99,2154.00,350.00,318.83,22.63,0000 0000 0000 0000 000000
2014-01-30 01:45:20,0.03,6.48,0.00,22.14,27.50,30.42,5.99,32.83,997.54,2039.72,1665.71,2007.99,2154.00,349.63,318.47,22.63,0000 0000 0000 0000 000000
2014-01-30 01:46:21,0.11,6.48,0.00,22.14,27.50,30.42,5.90,32.92,997.51,2039.71,1665.26,2007.99,2154.00,350.72,319.45,22.64,0000 0000 0000 0000 000000
2014-01-30 01:47:21,0.21,6.48,0.00,22.14,27.51,30.41,5.93,32.92,997.49,2039.77,1665.09,2007.99,2154.00,349.79,318.60,22.64,0000 0000 0000 0000 000000
2014-01-30 01:48:21,0.11,6.49,0.00,22.15,27.52,30.42,5.98,33.08,997.52,2039.68,1664.66,2007.99,2153.99,350.81,319.54,22.65,0000 0000 0000 0000 000000
2014-01-30 01:49:21,0.08,6.49,0.00,22.16,27.52,30.41,5.98,32.58,997.51,2039.51,1664.25,2007.99,2153.98,351.13,319.39,22.66,0000 0000 0000 0000 000000
2014-01-30 01:50:22,-0.02,6.49,0.00,22.17,27.52,30.44,6.01,32.75,997.53,2039.42,1664.08,2007.99,2153.91,349.74,318.70,22.66,0000 0000 0000 0000 000000
2014-01-30 01:51:22,0.01,6.49,0.00,22.18,27.52,30.46,5.82,32.54,997.41,2039.45,1663.73,2007.99,2153.86,349.19,318.03,22.67,0000 0000 0000 0000 000000
2014-01-30 01:52:22,0.18,6.49,0.00,22.19,27.53,30.46,5.88,32.75,997.34,2039.36,1663.28,2007.99,2153.65,349.30,318.15,22.67,0000 0000 0000 0000 000000
2014-01-30 01:53:22,0.13,6.49,0.00,22.19,27.54,30.46,5.84,32.79,997.43,2039.23,1663.08,2007.99,2153.34,349.18,317.95,22.68,0000 0000 0000 0000 000000
2014-01-30 01:54:23,0.03,6.49,0.00,22.19,27.55,30.45,5.86,32.54,997.45,2039.15,1662.70,2007.99,2153.16,349.79,318.41,22.69,0000 0000 0000 0000 000000
2014-01-30 01:55:23,0.11,6.49,0.00,22.19,27.55,30.47,5.94,32.63,997.42,2039.10,1662.27,2007.99,2153.06,349.54,318.54,22.69,0000 0000 0000 0000 000000
2014-01-30 01:56:23,0.15,6.49,0.00,22.20,27.55,30.47,5.82,32.79,997.36,2039.07,1662.04,2007.99,2153.02,348.97,317.97,22.70,0000 0000 0000 0000 000000
2014-01-30 01:57:24,0.10,6.49,0.00,22.20,27.55,30.46,5.92,32.67,997.19,2039.03,1661.55,2007.99,2153.00,349.49,318.49,22.70,0000 0000 0000 0000 000000
2014-01-30 01:58:24,0.13,6.49,0.00,22.20,27.55,30.46,5.93,32.54,997.16,2039.04,1661.20,2007.99,2153.00,350.34,318.94,22.71,0000 0000 0000 0000 000000
2014-01-30 01:59:24,0.15,6.49,0.00,22.20,27.57,30.45,5.83,32.67,997.14,2039.04,1660.98,2007.99,2153.00,349.38,318.28,22.72,0000 0000 0000 0000 000000
2014-01-30 02:00:25,0.12,6.49,0.00,22.20,27.57,30.47,5.84,32.67,997.11,2039.03,1660.49,2008.00,2153.00,349.57,318.22,22.72,0000 0000 0000 0000 000000
2014-01-30 02:01:25,0.16,6.49,0.00,22.22,27.57,30.48,5.89,32.71,997.09,2039.03,1660.18,2008.02,2152.98,349.29,317.94,22.73,0000 0000 0000 0000 000000
2014-01-30 02:02:25,0.12,6.49,0.00,22.22,27.57,30.47,5.98,32.88,997.11,2039.05,1659.97,2008.05,2152.98,350.31,318.97,22.73,0000 0000 0000 0000 000000
2014-01-30 02:03:25,0.13,6.49,0.00,22.22,27.57,30.46,6.08,32.71,997.12,2039.04,1659.47,2008.05,2152.98,350.43,318.97,22.74,0000 0000 0000 0000 000000
2014-01-30 02:04:26,0.19,6.50,0.00,22.23,27.57,30.43,6.03,32.63,997.09,2039.03,1659.18,2008.17,2152.97,350.29,318.83,22.74,0000 0000 0000 0000 000000
2014-01-30 02:05:26,0.07,6.50,0.00,22.24,27.59,30.44,5.86,32.83,997.09,2039.03,1658.96,2008.28,2152.94,349.44,318.04,22.75,0000 0000 0000 0000 000000
2014-01-30 02:06:26,0.09,6.50,0.00,22.25,27.59,30.46,5.88,32.54,997.10,2039.05,1658.41,2008.35,2152.82,349.89,318.29,22.76,0000 0000 0000 0000 000000
2014-01-30 02:07:27,0.21,6.50,0.00,22.26,27.60,30.47,5.93,32.71,997.09,2039.03,1658.15,2008.48,2152.61,349.91,318.46,22.76,0000 0000 0000 0000 000000
2014-01-30 02:08:27,0.08,6.50,0.00,22.27,27.60,30.49,5.98,32.75,997.09,2039.01,1657.93,2008.61,2152.40,350.23,318.73,22.77,0000 0000 0000 0000 000000
2014-01-30 02:09:27,0.13,6.50,0.00,22.28,27.60,30.50,5.88,32.92,997.09,2039.00,1657.43,2008.67,2152.20,349.67,318.19,22.77,0000 0000 0000 0000 000000
2014-01-30 02:10:27,0.18,6.50,0.00,22.29,27.60,30.50,5.96,32.96,997.09,2039.00,1657.14,2008.74,2152.09,350.94,319.42,22.78,0000 0000 0000 0000 000000
2014-01-30 02:11:28,0.13,6.50,0.00,22.29,27.60,30.51,5.86,32.71,997.09,2039.01,1656.78,2008.81,2152.04,349.60,317.95,22.79,0000 0000 0000 0000 000000
2014-01-30 02:12:28,0.17,6.50,0.00,22.29,27.62,30.50,5.91,32.67,997.09,2039.00,1656.30,2008.89,2152.01,349.75,318.27,22.79,0000 0000 0000 0000 000000
2014-01-30 02:13:28,0.14,6.50,0.00,22.30,27.62,30.50,5.96,32.50,997.09,2039.00,1656.11,2008.92,2152.00,349.82,318.55,22.80,0000 0000 0000 0000 000000
2014-01-30 02:14:29,0.08,6.50,0.00,22.30,27.62,30.45,5.83,32.75,997.09,2039.00,1655.75,2008.91,2152.00,349.06,317.64,22.80,0000 0000 0000 0000 000000
2014-01-30 02:15:29,0.15,6.50,0.00,22.30,27.62,30.48,6.09,32.79,997.09,2039.00,1655.28,2008.95,2152.00,350.17,318.63,22.81,0000 0000 0000 0000 000000
2014-01-30 02:16:29,0.16,6.51,0.00,22.30,27.62,30.50,5.94,32.58,997.09,2039.00,1655.10,2008.97,2152.00,350.01,318.80,22.81,0000 0000 0000 0000 000000
2014-01-30 02:17:30,0.09,6.51,0.00,22.32,27.62,30.50,5.96,32.63,997.09,2039.00,1654.73,2008.98,2152.00,349.84,318.32,22.82,0000 0000 0000 0000 000000
2014-01-30 02:18:30,0.16,6.51,0.00,22.32,27.63,30.51,5.90,32.83,997.09,2039.00,1654.29,2008.96,2152.00,349.75,318.34,22.83,0000 0000 0000 0000 000000
2014-01-30 02:19:30,0.17,6.51,0.00,22.32,27.64,30.51,5.86,32.79,997.09,2039.00,1654.07,2008.98,2151.98,350.34,318.93,22.83,0000 0000 0000 0000 000000
2014-01-30 02:20:31,0.12,6.51,0.00,22.32,27.65,30.54,5.98,32.63,997.07,2039.00,1653.58,2008.99,2151.92,350.13,318.58,22.84,0000 0000 0000 0000 000000
2014-01-30 02:21:31,0.19,6.51,0.00,22.34,27.65,30.55,5.92,32.96,997.05,2039.00,1653.21,2008.99,2151.82,350.22,318.64,22.84,0000 0000 0000 0000 000000
2014-01-30 02:22:31,0.19,6.51,0.00,22.34,27.65,30.54,5.94,32.88,997.02,2039.00,1653.02,2008.99,2151.55,350.66,319.03,22.85,0000 0000 0000 0000 000000
2014-01-30 02:23:31,0.19,6.51,0.00,22.35,27.65,30.55,6.02,32.71,996.99,2038.99,1652.50,2008.99,2151.30,350.29,318.58,22.86,0000 0000 0000 0000 000000
2014-01-30 02:24:32,0.23,6.51,0.00,22.35,27.65,30.56,5.97,32.75,996.92,2038.99,1652.18,2008.99,2151.14,349.63,318.05,22.86,0000 0000 0000 0000 000000
2014-01-30 02:25:32,0.18,6.52,0.00,22.37,27.65,30.55,5.82,32.71,996.77,2038.99,1652.02,2008.99,2151.07,349.78,318.13,22.87,0000 0000 0000 0000 000000
2014-01-30 02:26:32,0.11,6.52,0.00,22.37,27.66,30.57,5.95,32.71,996.72,2038.99,1651.55,2009.01,2151.07,350.03,318.44,22.87,0000 0000 0000 0000 000000
2014-01-30 02:27:32,0.17,6.52,0.00,22.37,27.67,30.57,6.02,32.71,996.69,2038.98,1651.19,2009.01,2151.03,350.19,318.36,22.88,0000 0000 0000 0000 000000
2014-01-30 02:28:33,0.17,6.52,0.00,22.38,27.67,30.52,6.01,32.63,996.65,2038.99,1650.98,2009.02,2151.02,350.43,318.67,22.89,0000 0000 0000 0000 000000
2014-01-30 02:29:33,0.11,6.52,0.00,22.39,27.67,30.54,5.93,32.96,996.63,2038.99,1650.52,2009.04,2151.01,350.32,318.55,22.89,0000 0000 0000 0000 000000
2014-01-30 02:30:33,0.15,6.52,0.00,22.39,27.67,30.57,5.79,32.67,996.61,2038.99,1650.19,2009.07,2151.00,349.52,317.91,22.90,0000 0000 0000 0000 000000
2014-01-30 02:31:33,0.12,6.52,0.00,22.39,27.67,30.57,5.93,32.71,996.61,2038.98,1649.93,2009.07,2151.00,349.60,317.75,22.90,0000 0000 0000 0000 000000
2014-01-30 02:32:34,0.13,6.52,0.00,22.39,27.67,30.57,5.98,32.83,996.61,2038.98,1649.41,2009.11,2151.00,350.32,318.46,22.91,0000 0000 0000 0000 000000
2014-01-30 02:33:34,0.17,6.52,0.00,22.39,27.68,30.59,5.88,32.58,996.62,2038.96,1649.14,2009.17,2150.99,348.99,317.66,22.91,0000 0000 0000 0000 000000
2014-01-30 02:34:34,0.08,6.52,0.00,22.39,27.69,30.59,6.05,32.79,996.63,2038.92,1648.89,2009.19,2150.98,350.83,319.00,22.92,0000 0000 0000 0000 000000
2014-01-30 02:35:35,0.07,6.52,0.00,22.40,27.70,30.58,5.93,32.88,996.61,2038.88,1648.37,2009.30,2150.98,350.12,318.35,22.93,0000 0000 0000 0000 000000
2014-01-30 02:36:35,0.10,6.52,0.00,22.41,27.70,30.58,5.98,32.67,996.60,2038.91,1648.13,2009.50,2150.96,349.50,317.77,22.93,0000 0000 0000 0000 000000
2014-01-30 02:37:35,0.04,6.52,0.00,22.42,27.70,30.58,5.92,32.79,996.60,2038.91,1647.94,2009.71,2150.92,349.63,317.88,22.94,0000 0000 0000 0000 000000